Location: Newark
(44.4156°N, 12.1972°E)
Time: 04:07:05
(UTC+00:00)

STARLINK-1082 - Pass Details

Date: 31 January 2020
Orbit: 349 x 351 km, 53.0° (Epoch: 21 February)

Event Time Altitude Azimuth Distance (km) Brightness Sun altitude
Rises 18:32:17 0° 294° (WNW) 2,179 7.7 -24.0°
Reaches altitude 10° 18:34:33 10° 278° (W) 1,331 6.6 -24.4°
Enters shadow 18:36:25 21° 242° (WSW) 871 5.3 -24.8°
